Time,TemperatureF,DewpointF,PressureIn,WindDirection,WindDirectionDegrees,WindSpeedMPH,WindSpeedGustMPH,Humidity,HourlyPrecipIn,Conditions,Clouds,dailyrainin,SoftwareType,DateUTC
2013-05-22 00:06:00,50.8,26.0,30.02,NE,53,1.0,-999.0,39,-99.99,,,0.00,weatherlink.com 1.10,2013-05-22 06:06:00,
2013-05-22 00:21:00,51.0,26.0,30.02,NE,53,0.0,-999.0,38,-99.99,,,0.00,weatherlink.com 1.10,2013-05-22 06:21:00,
2013-05-22 00:36:00,49.9,26.0,30.02,NE,53,0.0,-999.0,40,-99.99,,,0.00,weatherlink.com 1.10,2013-05-22 06:36:00,
2013-05-22 00:51:00,48.8,26.0,30.03,NE,53,0.0,-999.0,41,-99.99,,,0.00,weatherlink.com 1.10,2013-05-22 06:51:00,
2013-05-22 01:06:00,47.3,26.0,30.00,NE,53,0.0,-999.0,43,-99.99,,,0.00,weatherlink.com 1.10,2013-05-22 07:06:00,
2013-05-22 01:21:00,46.7,26.0,30.02,NE,53,0.0,-999.0,44,-99.99,,,0.00,weatherlink.com 1.10,2013-05-22 07:21:00,
2013-05-22 01:36:00,46.4,25.0,30.02,NE,53,0.0,-999.0,44,-99.99,,,0.00,weatherlink.com 1.10,2013-05-22 07:36:00,
2013-05-22 01:51:00,45.8,25.0,30.01,NE,53,1.0,-999.0,45,-99.99,,,0.00,weatherlink.com 1.10,2013-05-22 07:51:00,
2013-05-22 02:06:00,46.0,25.0,30.00,NE,53,0.0,-999.0,44,-99.99,,,0.00,weatherlink.com 1.10,2013-05-22 08:06:00,
2013-05-22 02:21:00,45.2,25.0,30.01,NE,53,0.0,-999.0,45,-99.99,,,0.00,weatherlink.com 1.10,2013-05-22 08:21:00,
2013-05-22 02:36:00,44.5,25.0,30.00,NE,53,0.0,-999.0,47,-99.99,,,0.00,weatherlink.com 1.10,2013-05-22 08:36:00,
2013-05-22 02:51:00,44.6,25.0,30.00,NE,53,0.0,-999.0,46,-99.99,,,0.00,weatherlink.com 1.10,2013-05-22 08:51:00,
2013-05-22 03:06:00,44.5,25.0,29.97,NE,53,0.0,-999.0,46,-99.99,,,0.00,weatherlink.com 1.10,2013-05-22 09:06:00,
2013-05-22 03:21:00,43.5,25.0,29.98,NE,53,0.0,-999.0,48,-99.99,,,0.00,weatherlink.com 1.10,2013-05-22 09:21:00,
2013-05-22 03:36:00,43.3,25.0,29.97,NE,53,0.0,-999.0,48,-99.99,,,0.00,weatherlink.com 1.10,2013-05-22 09:36:00,
2013-05-22 03:51:00,43.2,25.0,29.99,NE,53,0.0,-999.0,49,-99.99,,,0.00,weatherlink.com 1.10,2013-05-22 09:51:00,
2013-05-22 04:06:00,42.8,25.0,30.02,NE,53,0.0,-999.0,49,-99.99,,,0.00,weatherlink.com 1.10,2013-05-22 10:06:00,
2013-05-22 04:21:00,42.5,24.0,30.02,NE,53,0.0,-999.0,48,-99.99,,,0.00,weatherlink.com 1.10,2013-05-22 10:21:00,
2013-05-22 04:36:00,42.6,24.0,30.03,NE,53,0.0,-999.0,48,-99.99,,,0.00,weatherlink.com 1.10,2013-05-22 10:36:00,
2013-05-22 04:51:00,42.3,24.0,30.03,NE,53,0.0,-999.0,49,-99.99,,,0.00,weatherlink.com 1.10,2013-05-22 10:51:00,
2013-05-22 05:06:00,42.8,24.0,30.02,NE,53,1.0,-999.0,47,-99.99,,,0.00,weatherlink.com 1.10,2013-05-22 11:06:00,
2013-05-22 05:21:00,43.2,24.0,30.01,NE,52,0.0,-999.0,47,-99.99,,,0.00,weatherlink.com 1.10,2013-05-22 11:21:00,
2013-05-22 05:36:00,42.3,24.0,30.03,NE,52,0.0,-999.0,48,-99.99,,,0.00,weatherlink.com 1.10,2013-05-22 11:36:00,
2013-05-22 05:51:00,41.9,23.0,30.03,NE,52,0.0,-999.0,48,-99.99,,,0.00,weatherlink.com 1.10,2013-05-22 11:51:00,
2013-05-22 06:06:00,41.6,24.0,30.06,NE,52,0.0,-999.0,49,-99.99,,,0.00,weatherlink.com 1.10,2013-05-22 12:06:00,
2013-05-22 06:21:00,41.8,23.0,30.06,NE,52,0.0,-999.0,48,-99.99,,,0.00,weatherlink.com 1.10,2013-05-22 12:21:00,
2013-05-22 06:36:00,42.5,24.0,30.06,NE,52,0.0,-999.0,48,-99.99,,,0.00,weatherlink.com 1.10,2013-05-22 12:36:00,
2013-05-22 06:51:00,45.4,24.0,30.05,NE,52,0.0,-999.0,44,-99.99,,,0.00,weatherlink.com 1.10,2013-05-22 12:51:00,
2013-05-22 07:06:00,48.8,25.0,30.05,NE,52,0.0,-999.0,39,-99.99,,,0.00,weatherlink.com 1.10,2013-05-22 13:06:00,
2013-05-22 07:21:00,48.0,26.0,30.05,NE,52,1.0,-999.0,43,-99.99,,,0.00,weatherlink.com 1.10,2013-05-22 13:21:00,
2013-05-22 07:36:00,49.5,26.0,30.05,NE,56,1.0,-999.0,41,-99.99,,,0.00,weatherlink.com 1.10,2013-05-22 13:36:00,
2013-05-22 07:51:00,52.2,27.0,30.03,ENE,63,0.0,-999.0,38,-99.99,,,0.00,weatherlink.com 1.10,2013-05-22 13:51:00,
2013-05-22 08:06:00,53.3,28.0,30.04,ENE,69,2.0,-999.0,38,-99.99,,,0.00,weatherlink.com 1.10,2013-05-22 14:06:00,
2013-05-22 08:21:00,54.5,26.0,30.04,East,79,0.0,-999.0,34,-99.99,,,0.00,weatherlink.com 1.10,2013-05-22 14:21:00,
2013-05-22 08:36:00,56.3,27.0,30.02,East,79,1.0,-999.0,32,-99.99,,,0.00,weatherlink.com 1.10,2013-05-22 14:36:00,
2013-05-22 08:51:00,57.8,26.0,30.01,East,79,1.0,-999.0,30,-99.99,,,0.00,weatherlink.com 1.10,2013-05-22 14:51:00,
2013-05-22 09:06:00,58.4,28.0,30.01,East,79,0.0,-999.0,32,-99.99,,,0.00,weatherlink.com 1.10,2013-05-22 15:06:00,
2013-05-22 09:21:00,60.2,27.0,29.99,East,87,1.0,-999.0,28,-99.99,,,0.00,weatherlink.com 1.10,2013-05-22 15:21:00,
2013-05-22 09:36:00,60.5,26.0,29.97,South,182,0.0,-999.0,27,-99.99,,,0.00,weatherlink.com 1.10,2013-05-22 15:36:00,
2013-05-22 09:50:00,62.1,24.0,29.97,WSW,255,1.0,-999.0,23,-99.99,,,0.00,weatherlink.com 1.10,2013-05-22 15:50:00,
2013-05-22 10:05:00,61.8,23.0,30.00,South,184,9.0,-999.0,23,-99.99,,,0.00,weatherlink.com 1.10,2013-05-22 16:05:00,
2013-05-22 10:20:00,62.4,25.0,30.00,South,184,5.0,-999.0,24,-99.99,,,0.00,weatherlink.com 1.10,2013-05-22 16:20:00,
2013-05-22 10:36:00,62.9,25.0,30.00,SE,142,1.0,-999.0,24,-99.99,,,0.00,weatherlink.com 1.10,2013-05-22 16:36:00,
2013-05-22 10:51:00,65.3,24.0,29.97,SSE,153,5.0,-999.0,21,-99.99,,,0.00,weatherlink.com 1.10,2013-05-22 16:51:00,
2013-05-22 11:06:00,65.6,24.0,29.95,SE,131,5.0,-999.0,21,-99.99,,,0.00,weatherlink.com 1.10,2013-05-22 17:06:00,
2013-05-22 11:21:00,66.0,26.0,29.95,SE,125,5.0,-999.0,22,-99.99,,,0.00,weatherlink.com 1.10,2013-05-22 17:21:00,
2013-05-22 11:36:00,65.6,24.0,29.95,South,190,7.0,-999.0,21,-99.99,,,0.00,weatherlink.com 1.10,2013-05-22 17:36:00,
2013-05-22 11:51:00,66.1,24.0,29.95,ESE,112,7.0,-999.0,20,-99.99,,,0.00,weatherlink.com 1.10,2013-05-22 17:51:00,
2013-05-22 12:06:00,66.6,23.0,29.98,East,97,10.0,-999.0,19,-99.99,,,0.00,weatherlink.com 1.10,2013-05-22 18:06:00,
2013-05-22 12:36:00,68.3,24.0,29.96,SE,145,2.0,-999.0,19,-99.99,,,0.00,weatherlink.com 1.10,2013-05-22 18:36:00,
2013-05-22 12:51:00,68.1,23.0,29.94,ESE,122,2.0,-999.0,18,-99.99,,,0.00,weatherlink.com 1.10,2013-05-22 18:51:00,
2013-05-22 13:06:00,68.6,22.0,29.97,East,80,5.0,-999.0,17,-99.99,,,0.00,weatherlink.com 1.10,2013-05-22 19:06:00,
2013-05-22 13:21:00,68.9,22.0,29.96,ESE,104,7.0,-999.0,17,-99.99,,,0.00,weatherlink.com 1.10,2013-05-22 19:21:00,
2013-05-22 13:36:00,69.3,23.0,29.94,ESE,115,1.0,-999.0,17,-99.99,,,0.00,weatherlink.com 1.10,2013-05-22 19:36:00,
2013-05-22 13:51:00,69.6,21.0,29.94,WSW,255,4.0,-999.0,16,-99.99,,,0.00,weatherlink.com 1.10,2013-05-22 19:51:00,
2013-05-22 14:06:00,70.4,22.0,29.95,South,184,8.0,-999.0,16,-99.99,,,0.00,weatherlink.com 1.10,2013-05-22 20:06:00,
2013-05-22 14:21:00,70.8,19.0,29.95,SSW,194,12.0,-999.0,14,-99.99,,,0.00,weatherlink.com 1.10,2013-05-22 20:21:00,
2013-05-22 14:36:00,71.8,18.0,29.95,ESE,107,1.0,-999.0,13,-99.99,,,0.00,weatherlink.com 1.10,2013-05-22 20:36:00,
2013-05-22 14:51:00,69.9,18.0,29.93,South,175,2.0,-999.0,14,-99.99,,,0.00,weatherlink.com 1.10,2013-05-22 20:51:00,
2013-05-22 15:06:00,70.4,17.0,29.96,SSW,193,3.0,-999.0,13,-99.99,,,0.00,weatherlink.com 1.10,2013-05-22 21:06:00,
2013-05-22 15:20:00,72.3,19.0,29.94,SSE,153,9.0,-999.0,13,-99.99,,,0.00,weatherlink.com 1.10,2013-05-22 21:20:00,
2013-05-22 15:35:00,71.1,16.0,29.94,ENE,62,5.0,-999.0,12,-99.99,,,0.00,weatherlink.com 1.10,2013-05-22 21:35:00,
2013-05-22 15:50:00,70.6,15.0,29.94,SSE,166,0.0,-999.0,12,-99.99,,,0.00,weatherlink.com 1.10,2013-05-22 21:50:00,
2013-05-22 16:06:00,70.6,15.0,29.95,SSW,208,6.0,-999.0,12,-99.99,,,0.00,weatherlink.com 1.10,2013-05-22 22:06:00,
2013-05-22 16:21:00,70.1,15.0,29.95,South,180,5.0,-999.0,12,-99.99,,,0.00,weatherlink.com 1.10,2013-05-22 22:21:00,
2013-05-22 16:36:00,72.8,17.0,29.94,South,183,3.0,-999.0,12,-99.99,,,0.00,weatherlink.com 1.10,2013-05-22 22:36:00,
2013-05-22 17:06:00,72.1,17.0,29.94,SW,215,3.0,-999.0,12,-99.99,,,0.00,weatherlink.com 1.10,2013-05-22 23:06:00,
2013-05-22 17:21:00,73.0,17.0,29.92,South,187,5.0,-999.0,12,-99.99,,,0.00,weatherlink.com 1.10,2013-05-22 23:21:00,
2013-05-22 17:36:00,71.5,16.0,29.91,WSW,242,1.0,-999.0,12,-99.99,,,0.00,weatherlink.com 1.10,2013-05-22 23:36:00,
2013-05-22 17:51:00,70.9,18.0,29.91,WSW,248,5.0,-999.0,13,-99.99,,,0.00,weatherlink.com 1.10,2013-05-22 23:51:00,
2013-05-22 18:06:00,69.8,17.0,29.91,WSW,237,13.0,-999.0,13,-99.99,,,0.00,weatherlink.com 1.10,2013-05-23 00:06:00,
2013-05-22 18:21:00,70.4,17.0,29.91,WSW,245,4.0,-999.0,13,-99.99,,,0.00,weatherlink.com 1.10,2013-05-23 00:21:00,
2013-05-22 18:36:00,69.8,18.0,29.90,South,175,0.0,-999.0,14,-99.99,,,0.00,weatherlink.com 1.10,2013-05-23 00:36:00,
2013-05-22 18:51:00,68.8,18.0,29.92,WSW,256,1.0,-999.0,14,-99.99,,,0.00,weatherlink.com 1.10,2013-05-23 00:51:00,
2013-05-22 19:06:00,68.1,19.0,29.88,SW,230,8.0,-999.0,15,-99.99,,,0.00,weatherlink.com 1.10,2013-05-23 01:06:00,
2013-05-22 19:21:00,67.9,17.0,29.88,South,191,0.0,-999.0,14,-99.99,,,0.00,weatherlink.com 1.10,2013-05-23 01:21:00,
2013-05-22 19:36:00,67.3,19.0,29.88,South,176,0.0,-999.0,16,-99.99,,,0.00,weatherlink.com 1.10,2013-05-23 01:36:00,
2013-05-22 19:51:00,66.4,20.0,29.90,South,176,0.0,-999.0,17,-99.99,,,0.00,weatherlink.com 1.10,2013-05-23 01:51:00,
2013-05-22 20:06:00,64.3,20.0,29.86,South,176,0.0,-999.0,18,-99.99,,,0.00,weatherlink.com 1.10,2013-05-23 02:06:00,
2013-05-22 20:21:00,62.1,20.0,29.88,South,176,0.0,-999.0,20,-99.99,,,0.00,weatherlink.com 1.10,2013-05-23 02:21:00,
2013-05-22 20:36:00,60.7,19.0,29.89,South,176,0.0,-999.0,20,-99.99,,,0.00,weatherlink.com 1.10,2013-05-23 02:36:00,
2013-05-22 20:51:00,60.7,19.0,29.91,South,177,0.0,-999.0,20,-99.99,,,0.00,weatherlink.com 1.10,2013-05-23 02:51:00,
2013-05-22 21:07:00,59.8,20.0,29.87,South,177,1.0,-999.0,21,-99.99,,,0.00,weatherlink.com 1.10,2013-05-23 03:07:00,
2013-05-22 21:21:00,59.5,18.0,29.87,South,177,0.0,-999.0,20,-99.99,,,0.00,weatherlink.com 1.10,2013-05-23 03:21:00,
2013-05-22 21:36:00,58.7,18.0,29.89,South,177,0.0,-999.0,20,-99.99,,,0.00,weatherlink.com 1.10,2013-05-23 03:36:00,
2013-05-22 21:50:00,58.3,19.0,29.90,South,177,0.0,-999.0,22,-99.99,,,0.00,weatherlink.com 1.10,2013-05-23 03:50:00,
2013-05-22 22:05:00,57.0,18.0,29.89,South,177,0.0,-999.0,22,-99.99,,,0.00,weatherlink.com 1.10,2013-05-23 04:05:00,
2013-05-22 23:14:00,55.0,20.0,29.93,South,177,0.0,-999.0,25,-99.99,,,0.00,weatherlink.com 1.10,2013-05-23 05:14:00,
2013-05-22 23:21:00,55.0,19.0,29.93,South,177,0.0,-999.0,24,-99.99,,,0.00,weatherlink.com 1.10,2013-05-23 05:21:00,
2013-05-22 23:36:00,55.0,20.0,29.93,South,177,0.0,-999.0,25,-99.99,,,0.00,weatherlink.com 1.10,2013-05-23 05:36:00,
2013-05-22 23:51:00,54.5,19.0,29.93,South,177,0.0,-999.0,25,-99.99,,,0.00,weatherlink.com 1.10,2013-05-23 05:51:00,